Time,TemperatureF,DewpointF,PressureIn,WindDirection,WindDirectionDegrees,WindSpeedMPH,WindSpeedGustMPH,Humidity,HourlyPrecipIn,Conditions,Clouds,dailyrainin,SoftwareType,DateUTC
2013-10-03 00:12:00,55.6,54.0,29.96,East,95,0.0,0.0,95,0.00,,,0.00,weatherlink.com 1.10,2013-10-03 04:12:00,
2013-10-03 00:27:00,57.4,55.0,29.97,NW,323,0.0,2.0,93,0.00,,,0.00,weatherlink.com 1.10,2013-10-03 04:27:00,
2013-10-03 00:42:00,57.7,55.0,29.97,NW,323,0.0,0.0,91,0.00,,,0.00,weatherlink.com 1.10,2013-10-03 04:42:00,
2013-10-03 00:57:00,57.7,55.0,29.97,NE,35,0.0,2.0,90,0.00,,,0.00,weatherlink.com 1.10,2013-10-03 04:57:00,
2013-10-03 01:12:00,58.1,56.0,29.98,WNW,294,0.0,2.0,91,0.00,,,0.00,weatherlink.com 1.10,2013-10-03 05:12:00,
2013-10-03 01:27:00,57.9,55.0,29.98,North,5,0.0,1.0,91,0.00,,,0.00,weatherlink.com 1.10,2013-10-03 05:27:00,
2013-10-03 01:42:00,57.9,56.0,29.98,NW,304,1.0,4.0,92,0.00,,,0.00,weatherlink.com 1.10,2013-10-03 05:42:00,
2013-10-03 01:57:00,57.0,55.0,29.98,NE,48,1.0,2.0,91,0.00,,,0.00,weatherlink.com 1.10,2013-10-03 05:57:00,
2013-10-03 02:12:00,56.6,55.0,29.98,NE,35,1.0,3.0,94,0.00,,,0.00,weatherlink.com 1.10,2013-10-03 06:12:00,
2013-10-03 02:27:00,56.6,55.0,29.98,NE,36,1.0,5.0,93,0.00,,,0.00,weatherlink.com 1.10,2013-10-03 06:27:00,
2013-10-03 02:42:00,56.0,54.0,29.98,NE,36,0.0,0.0,93,0.00,,,0.00,weatherlink.com 1.10,2013-10-03 06:42:00,
2013-10-03 02:58:00,54.6,52.0,29.98,NE,36,0.0,0.0,92,0.00,,,0.00,weatherlink.com 1.10,2013-10-03 06:58:00,
2013-10-03 03:13:00,53.2,51.0,29.98,NE,36,0.0,0.0,92,0.00,,,0.00,weatherlink.com 1.10,2013-10-03 07:13:00,
2013-10-03 03:28:00,52.2,51.0,29.98,NE,53,0.0,1.0,94,0.00,,,0.00,weatherlink.com 1.10,2013-10-03 07:28:00,
2013-10-03 03:43:00,51.4,50.0,29.98,NE,53,0.0,0.0,95,0.00,,,0.00,weatherlink.com 1.10,2013-10-03 07:43:00,
2013-10-03 03:58:00,50.9,50.0,29.98,NE,53,1.0,2.0,95,0.00,,,0.00,weatherlink.com 1.10,2013-10-03 07:58:00,
2013-10-03 04:13:00,50.6,50.0,29.98,NE,53,0.0,1.0,96,0.00,,,0.00,weatherlink.com 1.10,2013-10-03 08:13:00,
2013-10-03 04:28:00,50.3,49.0,29.98,NE,53,0.0,2.0,96,0.00,,,0.00,weatherlink.com 1.10,2013-10-03 08:28:00,
2013-10-03 04:43:00,50.0,49.0,29.98,NE,53,0.0,2.0,97,0.00,,,0.00,weatherlink.com 1.10,2013-10-03 08:43:00,
2013-10-03 04:58:00,49.7,49.0,29.98,NE,53,0.0,0.0,97,0.00,,,0.00,weatherlink.com 1.10,2013-10-03 08:58:00,
2013-10-03 05:13:00,49.7,49.0,29.98,NE,53,1.0,2.0,97,0.00,,,0.00,weatherlink.com 1.10,2013-10-03 09:13:00,
2013-10-03 05:28:00,49.4,49.0,29.98,NE,53,0.0,2.0,97,0.00,,,0.00,weatherlink.com 1.10,2013-10-03 09:28:00,
2013-10-03 05:43:00,49.5,49.0,29.99,NE,53,0.0,1.0,98,0.00,,,0.00,weatherlink.com 1.10,2013-10-03 09:43:00,
2013-10-03 05:58:00,49.6,49.0,29.99,NE,53,0.0,1.0,98,0.00,,,0.00,weatherlink.com 1.10,2013-10-03 09:58:00,
2013-10-03 06:13:00,49.8,49.0,29.99,NE,54,0.0,2.0,98,0.00,,,0.00,weatherlink.com 1.10,2013-10-03 10:13:00,
2013-10-03 06:28:00,49.9,49.0,30.00,ENE,73,1.0,2.0,98,0.00,,,0.00,weatherlink.com 1.10,2013-10-03 10:28:00,
2013-10-03 06:43:00,49.9,49.0,30.00,ENE,73,1.0,2.0,98,0.00,,,0.00,weatherlink.com 1.10,2013-10-03 10:43:00,
2013-10-03 06:58:00,49.9,50.0,30.00,ENE,74,0.0,2.0,99,0.00,,,0.00,weatherlink.com 1.10,2013-10-03 10:58:00,
2013-10-03 07:13:00,50.2,50.0,30.01,ENE,75,0.0,2.0,99,0.00,,,0.00,weatherlink.com 1.10,2013-10-03 11:13:00,
2013-10-03 07:28:00,50.0,50.0,30.01,SE,133,0.0,4.0,98,0.00,,,0.00,weatherlink.com 1.10,2013-10-03 11:28:00,
2013-10-03 07:43:00,49.6,49.0,30.02,SE,133,0.0,0.0,98,0.00,,,0.00,weatherlink.com 1.10,2013-10-03 11:43:00,
2013-10-03 07:58:00,49.6,49.0,30.02,SE,133,1.0,2.0,99,0.00,,,0.00,weatherlink.com 1.10,2013-10-03 11:58:00,
2013-10-03 08:13:00,50.0,50.0,30.03,SE,133,0.0,2.0,99,0.00,,,0.00,weatherlink.com 1.10,2013-10-03 12:13:00,
2013-10-03 08:28:00,51.2,51.0,30.02,SE,133,0.0,2.0,99,0.00,,,0.00,weatherlink.com 1.10,2013-10-03 12:28:00,
2013-10-03 08:43:00,52.7,53.0,30.03,SE,133,0.0,2.0,99,0.00,,,0.00,weatherlink.com 1.10,2013-10-03 12:43:00,
2013-10-03 08:58:00,54.0,54.0,30.03,SE,133,0.0,0.0,99,0.00,,,0.00,weatherlink.com 1.10,2013-10-03 12:58:00,
2013-10-03 09:13:00,54.8,54.0,30.03,SE,133,0.0,0.0,98,0.00,,,0.00,weatherlink.com 1.10,2013-10-03 13:13:00,
2013-10-03 09:28:00,55.7,55.0,30.03,SE,134,0.0,1.0,97,0.00,,,0.00,weatherlink.com 1.10,2013-10-03 13:28:00,
2013-10-03 09:43:00,57.3,55.0,30.04,SE,134,0.0,1.0,90,0.00,,,0.00,weatherlink.com 1.10,2013-10-03 13:43:00,
2013-10-03 09:58:00,59.1,54.0,30.04,SE,142,0.0,1.0,82,0.00,,,0.00,weatherlink.com 1.10,2013-10-03 13:58:00,
2013-10-03 10:13:00,60.7,52.0,30.04,SE,142,0.0,2.0,74,0.00,,,0.00,weatherlink.com 1.10,2013-10-03 14:13:00,
2013-10-03 10:28:00,61.8,53.0,30.03,West,262,1.0,3.0,73,0.00,,,0.00,weatherlink.com 1.10,2013-10-03 14:28:00,
2013-10-03 10:43:00,62.2,52.0,30.03,WSW,248,2.0,2.0,69,0.00,,,0.00,weatherlink.com 1.10,2013-10-03 14:43:00,
2013-10-03 10:59:00,63.1,51.0,30.03,WSW,246,1.0,5.0,65,0.00,,,0.00,weatherlink.com 1.10,2013-10-03 14:59:00,
2013-10-03 11:14:00,63.9,50.0,30.02,NNW,333,3.0,4.0,62,0.00,,,0.00,weatherlink.com 1.10,2013-10-03 15:14:00,
2013-10-03 11:29:00,65.7,52.0,30.01,WSW,249,4.0,5.0,62,0.00,,,0.00,weatherlink.com 1.10,2013-10-03 15:29:00,
2013-10-03 11:44:00,64.9,48.0,30.01,SW,236,0.0,6.0,55,0.00,,,0.00,weatherlink.com 1.10,2013-10-03 15:44:00,
2013-10-03 11:59:00,66.2,51.0,30.01,WSW,250,2.0,5.0,59,0.00,,,0.00,weatherlink.com 1.10,2013-10-03 15:59:00,
2013-10-03 12:14:00,66.9,53.0,30.00,WNW,286,2.0,5.0,62,0.00,,,0.00,weatherlink.com 1.10,2013-10-03 16:14:00,
2013-10-03 12:29:00,67.6,53.0,30.00,WNW,294,3.0,5.0,59,0.00,,,0.00,weatherlink.com 1.10,2013-10-03 16:29:00,
2013-10-03 12:44:00,69.2,49.0,30.00,NE,54,2.0,4.0,49,0.00,,,0.00,weatherlink.com 1.10,2013-10-03 16:44:00,
2013-10-03 12:59:00,69.6,45.0,29.99,NW,317,3.0,6.0,41,0.00,,,0.00,weatherlink.com 1.10,2013-10-03 16:59:00,
2013-10-03 13:14:00,69.3,44.0,29.98,West,278,1.0,5.0,41,0.00,,,0.00,weatherlink.com 1.10,2013-10-03 17:14:00,
2013-10-03 13:29:00,70.0,45.0,29.98,SW,233,0.0,4.0,41,0.00,,,0.00,weatherlink.com 1.10,2013-10-03 17:29:00,
2013-10-03 13:44:00,70.0,50.0,29.97,WNW,282,4.0,5.0,49,0.00,,,0.00,weatherlink.com 1.10,2013-10-03 17:44:00,
2013-10-03 13:59:00,69.9,49.0,29.96,ENE,61,1.0,4.0,47,0.00,,,0.00,weatherlink.com 1.10,2013-10-03 17:59:00,
2013-10-03 14:14:00,71.2,48.0,29.95,WNW,292,1.0,4.0,44,0.00,,,0.00,weatherlink.com 1.10,2013-10-03 18:14:00,
2013-10-03 14:29:00,70.1,49.0,29.95,WNW,286,0.0,5.0,47,0.00,,,0.00,weatherlink.com 1.10,2013-10-03 18:29:00,
2013-10-03 14:44:00,70.2,50.0,29.96,West,276,2.0,5.0,49,0.00,,,0.00,weatherlink.com 1.10,2013-10-03 18:44:00,
2013-10-03 14:59:00,70.6,50.0,29.95,WNW,285,4.0,5.0,48,0.00,,,0.00,weatherlink.com 1.10,2013-10-03 18:59:00,
2013-10-03 15:14:00,71.1,50.0,29.95,West,281,0.0,2.0,47,0.00,,,0.00,weatherlink.com 1.10,2013-10-03 19:14:00,
2013-10-03 15:29:00,72.5,51.0,29.95,WNW,302,0.0,1.0,47,0.00,,,0.00,weatherlink.com 1.10,2013-10-03 19:29:00,
2013-10-03 15:44:00,72.9,51.0,29.94,ESE,108,4.0,5.0,47,0.00,,,0.00,weatherlink.com 1.10,2013-10-03 19:44:00,
2013-10-03 15:59:00,72.2,52.0,29.94,East,93,4.0,5.0,49,0.00,,,0.00,weatherlink.com 1.10,2013-10-03 19:59:00,
2013-10-03 16:14:00,71.9,51.0,29.93,ESE,103,1.0,5.0,48,0.00,,,0.00,weatherlink.com 1.10,2013-10-03 20:14:00,
2013-10-03 16:29:00,71.8,51.0,29.93,ESE,105,2.0,5.0,48,0.00,,,0.00,weatherlink.com 1.10,2013-10-03 20:29:00,
2013-10-03 16:44:00,71.3,52.0,29.93,ESE,102,0.0,5.0,51,0.00,,,0.00,weatherlink.com 1.10,2013-10-03 20:44:00,
2013-10-03 16:59:00,71.1,52.0,29.92,ESE,114,0.0,2.0,51,0.00,,,0.00,weatherlink.com 1.10,2013-10-03 20:59:00,
2013-10-03 17:14:00,70.7,53.0,29.93,ESE,105,0.0,4.0,53,0.00,,,0.00,weatherlink.com 1.10,2013-10-03 21:14:00,
2013-10-03 17:29:00,70.3,53.0,29.93,ESE,105,0.0,1.0,55,0.00,,,0.00,weatherlink.com 1.10,2013-10-03 21:29:00,
2013-10-03 17:44:00,69.9,54.0,29.93,ESE,107,0.0,2.0,57,0.00,,,0.00,weatherlink.com 1.10,2013-10-03 21:44:00,
2013-10-03 17:59:00,69.5,55.0,29.93,ESE,107,0.0,0.0,61,0.00,,,0.00,weatherlink.com 1.10,2013-10-03 21:59:00,
2013-10-03 18:14:00,68.3,54.0,29.93,ESE,107,0.0,0.0,61,0.00,,,0.00,weatherlink.com 1.10,2013-10-03 22:14:00,
2013-10-03 18:29:00,67.3,53.0,29.93,ESE,108,0.0,2.0,61,0.00,,,0.00,weatherlink.com 1.10,2013-10-03 22:29:00,
2013-10-03 18:44:00,66.6,52.0,29.93,SE,136,0.0,2.0,60,0.00,,,0.00,weatherlink.com 1.10,2013-10-03 22:44:00,
2013-10-03 18:59:00,66.3,51.0,29.93,SE,128,0.0,3.0,59,0.00,,,0.00,weatherlink.com 1.10,2013-10-03 22:59:00,
2013-10-03 19:14:00,66.0,51.0,29.93,ESE,121,0.0,1.0,59,0.00,,,0.00,weatherlink.com 1.10,2013-10-03 23:14:00,
2013-10-03 19:29:00,65.6,52.0,29.93,ESE,117,0.0,0.0,61,0.00,,,0.00,weatherlink.com 1.10,2013-10-03 23:29:00,
2013-10-03 19:59:00,65.2,51.0,29.93,SE,134,0.0,1.0,61,0.00,,,0.00,weatherlink.com 1.10,2013-10-03 23:59:00,
2013-10-03 20:14:00,65.1,53.0,29.94,West,275,0.0,2.0,65,0.00,,,0.00,weatherlink.com 1.10,2013-10-04 00:14:00,
2013-10-03 20:29:00,64.3,52.0,29.94,West,275,0.0,0.0,64,0.00,,,0.00,weatherlink.com 1.10,2013-10-04 00:29:00,
2013-10-03 20:44:00,63.6,52.0,29.93,West,275,0.0,0.0,67,0.00,,,0.00,weatherlink.com 1.10,2013-10-04 00:44:00,
2013-10-03 20:59:00,63.6,54.0,29.93,West,267,0.0,1.0,71,0.00,,,0.00,weatherlink.com 1.10,2013-10-04 00:59:00,
2013-10-03 21:14:00,63.7,53.0,29.93,SE,124,0.0,2.0,68,0.00,,,0.00,weatherlink.com 1.10,2013-10-04 01:14:00,
2013-10-03 21:29:00,63.1,54.0,29.93,SW,231,0.0,5.0,71,0.00,,,0.00,weatherlink.com 1.10,2013-10-04 01:29:00,
2013-10-03 21:44:00,62.6,53.0,29.94,SW,231,0.0,0.0,72,0.00,,,0.00,weatherlink.com 1.10,2013-10-04 01:44:00,
2013-10-03 21:59:00,62.5,53.0,29.93,SW,231,0.0,0.0,72,0.00,,,0.00,weatherlink.com 1.10,2013-10-04 01:59:00,
2013-10-03 22:14:00,62.5,53.0,29.93,SE,132,0.0,2.0,72,0.00,,,0.00,weatherlink.com 1.10,2013-10-04 02:14:00,
2013-10-03 22:29:00,63.1,54.0,29.93,SE,142,2.0,2.0,72,0.00,,,0.00,weatherlink.com 1.10,2013-10-04 02:29:00,
2013-10-03 22:44:00,63.7,54.0,29.93,SSE,149,0.0,6.0,71,0.00,,,0.00,weatherlink.com 1.10,2013-10-04 02:44:00,
2013-10-03 22:59:00,64.0,54.0,29.92,SSE,150,1.0,2.0,70,0.00,,,0.00,weatherlink.com 1.10,2013-10-04 02:59:00,
2013-10-03 23:14:00,64.0,55.0,29.93,SW,225,0.0,1.0,72,0.00,,,0.00,weatherlink.com 1.10,2013-10-04 03:14:00,
2013-10-03 23:29:00,63.8,55.0,29.92,SE,134,0.0,1.0,72,0.00,,,0.00,weatherlink.com 1.10,2013-10-04 03:29:00,
2013-10-03 23:44:00,63.8,55.0,29.93,South,178,0.0,0.0,72,0.00,,,0.00,weatherlink.com 1.10,2013-10-04 03:44:00,
2013-10-03 23:59:00,63.9,55.0,29.93,SE,139,0.0,2.0,73,0.00,,,0.00,weatherlink.com 1.10,2013-10-04 03:59:00,